This demonstration page uses our WeatherBlox Daily Observations layout. Learn more.

Left ArrowRight Arrow

38.20091, -84.87328

Hourly Observations for August 28, 2016

Temp ( °F °C ) Dew Point ( °F °C ) Humidity (%) Winds ( mph kmh ) Pressure ( in mb ) Visibility ( mi km ) Precip ( " mm )
12:53 am 00:53 Clear 76 24.4 71 21.7 85 85 ENE 3 6 30.10 1019 10 16 0.00 0.00
1:53 am 01:53 Clear 76 24.4 71 21.7 85 85 Calm 30.10 1019 10 16 0.00 0.00
2:53 am 02:53 Clear 74 23.3 70 21.1 88 88 Calm 30.10 1019 9 14 0.00 0.00
3:53 am 03:53 Clear 74 23.3 71 21.7 91 91 Calm 30.10 1019 9 14 0.00 0.00
4:53 am 04:53 Clear 75 23.9 71 21.7 88 88 NNW 6 9 30.10 1019 9 14 0.00 0.00
5:09 am 05:09 Mostly Clear with Mist and Fog 74 23.3 71 21.7 91 91 VRB 3 6 30.12 1020 6 10 0.00 0.00
5:53 am 05:53 Clear 74 23.3 71 21.7 91 91 Calm 30.11 1020 9 14 0.00 0.00
6:53 am 06:53 Clear 73 22.8 70 21.1 90 90 Calm 30.13 1020 7 11 0.00 0.00
7:53 am 07:53 Sunny 74 23.3 70 21.1 88 88 SE 3 6 30.14 1021 7 11 0.00 0.00
8:53 am 08:53 Sunny 76 24.4 71 21.7 85 85 Calm 30.16 1022 10 16 0.00 0.00
9:53 am 09:53 Sunny 81 27.2 72 22.2 74 74 Calm 30.16 1022 10 16 0.00 0.00
10:53 am 10:53 Sunny 84 28.9 73 22.8 70 70 Calm 30.17 1022 10 16 0.00 0.00
11:53 am 11:53 Sunny 88 31.1 72 22.2 59 59 ENE 3 6 30.17 1022 10 16 0.00 0.00
12:53 pm 12:53 Sunny 89 31.7 73 22.8 59 59 Calm 30.16 1021 10 16 0.00 0.00
1:53 pm 13:53 Mostly Sunny 92 33.3 73 22.8 54 54 VRB 6 9 30.15 1021 10 16 0.00 0.00
2:53 pm 14:53 Mostly Cloudy 91 32.8 73 22.8 56 56 VRB 6 9 30.11 1020 10 16 0.00 0.00
3:19 pm 15:19 Mostly Cloudy with Nearby Thunderstorms 94 34.4 72 22.2 49 49 VRB 3 6 30.09 1019 10 16 0.00 0.00
3:46 pm 15:46 Cloudy with Thunderstorms 80 26.7 67 19.4 64 64 E 20 31 30.12 1020 10 16 0.00 0.00
3:53 pm 15:53 Cloudy with Thunderstorms 79 26.1 66 18.9 65 65 E 20 31 30.13 1020 10 16 0.00 0.00
4:31 pm 16:31 Cloudy with Strong Thunderstorms 73 22.8 68 20 84 84 NE 10 17 30.18 1022 2 3 0.12 3.05
4:51 pm 16:51 Cloudy with Thunderstorms 73 23 68 20 83 83 NNW 5 7 30.15 1021 3 5 0.28 7.11
4:53 pm 16:53 Cloudy with Thunderstorms 73 22.8 68 20 84 84 VRB 3 6 30.14 1021 3 5 0.28 7.11
5:08 pm 17:08 Mostly Cloudy with Nearby Thunderstorms 72 22.2 69 20.6 91 91 NNW 8 13 30.12 1020 10 16 0.00 0.03
5:26 pm 17:26 Mostly Sunny 72 22.2 68 20 87 87 W 3 6 30.09 1019 10 16 0.00 0.03
5:33 pm 17:33 Partly Cloudy with Nearby Thunderstorms 73 22.8 68 20 84 84 SW 5 7 30.09 1019 10 16 0.00 0.03
5:53 pm 17:53 Mostly Cloudy with Nearby Thunderstorms 74 23.3 70 21.1 88 88 Calm 30.11 1020 8 13 0.02 0.51
6:07 pm 18:07 Mostly Cloudy with Light Rain 74 23.3 70 21.1 88 88 VRB 3 6 30.12 1020 7 11 0.01 0.25
6:53 pm 18:53 Sunny 74 23.3 71 21.7 91 91 SSE 13 20 30.15 1021 10 16 0.02 0.51
7:53 pm 19:53 Sunny 75 23.9 70 21.1 84 84 NNW 5 7 30.12 1020 10 16 0.00 0.00
8:53 pm 20:53 Clear 74 23.3 69 20.6 85 85 Calm 30.13 1020 10 16 0.00 0.00
9:53 pm 21:53 Clear 74 23.3 69 20.6 85 85 N 6 9 30.17 1022 10 16 0.00 0.00
10:53 pm 22:53 Clear 73 22.8 68 20 84 84 Calm 30.16 1022 10 16 0.00 0.00
11:53 pm 23:53 Clear 73 22.8 68 20 84 84 N 6 9 30.15 1021 10 16 0.00 0.00

Powered by AerisWeather